Highgate, VT

2:23 PM EDT on August 21, 2017 (GMT -0400)
Franklin County State

Weather History for KFSO - June, 2014

Change the Weather History Date:

Monday, June 23, 2014

  Actual Average (KPBG) Record (KPBG)
Temperature  
Mean Temperature 70 °F -  
Max Temperature 85 °F 78 °F 95 °F (1983)
Min Temperature 55 °F 57 °F 45 °F (1991)
Cooling Degree Days 5    
Growing Degree Days 20 (Base 50)    
Moisture  
Dew Point 52 °F    
Average Humidity 55    
Maximum Humidity 88    
Minimum Humidity 30    
Precipitation  
Precipitation 0.00 in - - ()
Sea Level Pressure  
Sea Level Pressure 30.05 in    
Wind  
Wind Speed 3 mph (South)    
Max Wind Speed 8 mph    
Max Gust Speed -    
Visibility 10 miles    
Events      
Averages and records for this station are not official NWS values.
T = Trace of Precipitation, MM = Missing Value Source: NWS Daily Summary

Daily Weather History Graph

Daily Weather History Graph

Search for Another Location

Airport or City:

Trip Planner

Search our weather history database for the weather conditions in past years. The results will help you decide how hot, cold, wet, or windy it might be!

Date:

Astronomy

Jun. 23, 2014 Rise Set
Actual Time 5:06 AM EDT 8:42 PM EDT
Civil Twilight 4:29 AM EDT 9:20 PM EDT
Nautical Twilight 3:39 AM EDT 10:09 PM EDT
Astronomical Twilight 2:33 AM EDT 11:15 PM EDT
Moon 2:38 AM EDT (6/23) 5:14 PM EDT (6/23)
Length of Visible Light 16h 51m
Length of Day
15h 36m
Waning Crescent, 13% of the Moon is Illuminated
Jun 23
Waning Crescent
Jun 27
New
Jul 5
First Quarter
Jul 12
Full
Jul 18
Last Quarter

Hourly Weather History & Observations

Time (EDT) Temp. Heat Index Dew Point Humidity Pressure Visibility Wind Dir Wind Speed Gust Speed Precip Events Conditions
12:15 AM 57.2 °F - 52.3 °F 84% 30.02 in 10.0 mi Calm Calm - N/A   Clear
12:35 AM 57.2 °F - 52.5 °F 84% 30.02 in 10.0 mi Calm Calm - N/A   Clear
12:55 AM 56.5 °F - 51.6 °F 84% 30.02 in 10.0 mi Calm Calm - N/A   Clear
1:35 AM 55.9 °F - 51.8 °F 86% 30.03 in 10.0 mi SE 3.5 mph - N/A   Clear
1:55 AM 55.9 °F - 51.8 °F 86% 30.03 in 10.0 mi SE 4.6 mph - N/A   Clear
2:15 AM 55.9 °F - 51.8 °F 86% 30.03 in 10.0 mi Calm Calm - N/A   Clear
2:35 AM 55.9 °F - 51.8 °F 86% 30.04 in 10.0 mi SE 3.5 mph - N/A   Clear
2:55 AM 55.9 °F - 52.2 °F 87% 30.04 in 10.0 mi Calm Calm - N/A   Clear
3:15 AM 55.9 °F - 52.3 °F 88% 30.05 in 10.0 mi SE 3.5 mph - N/A   Clear
3:35 AM 55.9 °F - 52.3 °F 88% 30.05 in 10.0 mi SE 4.6 mph - N/A   Clear
3:55 AM 55.9 °F - 52.3 °F 88% 30.05 in 10.0 mi SE 4.6 mph - N/A   Clear
4:15 AM 55.9 °F - 52.3 °F 88% 30.05 in 10.0 mi ESE 3.5 mph - N/A   Clear
4:35 AM 55.9 °F - 52.3 °F 88% 30.05 in 10.0 mi SE 3.5 mph - N/A   Clear
4:55 AM 55.9 °F - 52.3 °F 88% 30.05 in 10.0 mi SE 3.5 mph - N/A   Clear
5:15 AM 55.9 °F - 52.2 °F 87% 30.05 in 10.0 mi SE 3.5 mph - N/A   Clear
5:35 AM 55.9 °F - 51.8 °F 86% 30.06 in 10.0 mi ESE 3.5 mph - N/A   Clear
5:55 AM 55.9 °F - 51.8 °F 86% 30.07 in 10.0 mi ESE 3.5 mph - N/A   Clear
6:15 AM 57.2 °F - 52.2 °F 83% 30.08 in 10.0 mi Calm Calm - N/A   Clear
6:35 AM 58.5 °F - 52.7 °F 81% 30.08 in 10.0 mi SE 3.5 mph - N/A   Clear
6:55 AM 61.0 °F - 54.0 °F 78% 30.08 in 10.0 mi SE 3.5 mph - N/A   Clear
7:15 AM 61.9 °F - 52.9 °F 72% 30.09 in 10.0 mi Calm Calm - N/A   Clear
7:35 AM 63.7 °F - 53.1 °F 68% 30.10 in 10.0 mi ESE 3.5 mph - N/A   Clear
7:55 AM 66.2 °F - 53.2 °F 63% 30.10 in 10.0 mi Calm Calm - N/A   Clear
8:15 AM 68.5 °F - 54.0 °F 60% 30.10 in 10.0 mi Calm Calm - N/A   Clear
8:35 AM 71.1 °F - 55.2 °F 57% 30.10 in 10.0 mi South 3.5 mph - N/A   Clear
8:55 AM 71.1 °F - 52.7 °F 52% 30.10 in 10.0 mi South 4.6 mph - N/A   Clear
9:15 AM 71.4 °F - 53.4 °F 53% 30.10 in 10.0 mi SSW 4.6 mph - N/A   Clear
9:35 AM 74.7 °F - 55.4 °F 51% 30.10 in 10.0 mi Calm Calm - N/A   Clear
9:55 AM 76.1 °F - 55.0 °F 48% 30.10 in 10.0 mi South 5.8 mph - N/A   Clear
10:15 AM 76.1 °F - 53.6 °F 45% 30.10 in 10.0 mi Calm Calm - N/A   Clear
10:35 AM 76.3 °F - 52.7 °F 44% 30.09 in 10.0 mi South 4.6 mph - N/A   Clear
10:55 AM 78.8 °F - 52.3 °F 40% 30.09 in 10.0 mi SSE 5.8 mph - N/A   Clear
11:15 AM 78.8 °F - 52.7 °F 40% 30.09 in 10.0 mi SW 5.8 mph - N/A   Clear
11:35 AM 78.8 °F - 53.2 °F 41% 30.08 in 10.0 mi SW 4.6 mph - N/A   Clear
11:55 AM 79.5 °F - 52.5 °F 39% 30.08 in 10.0 mi SSW 4.6 mph - N/A   Clear
12:15 PM 81.1 °F 80.8 °F 54.5 °F 40% 30.07 in 10.0 mi SW 3.5 mph - N/A   Clear
12:35 PM 81.1 °F - 52.0 °F 36% 30.07 in 10.0 mi SW 6.9 mph - N/A   Clear
12:55 PM 81.7 °F - 52.0 °F 36% 30.07 in 10.0 mi SW 6.9 mph - N/A   Clear
1:15 PM 81.1 °F - 49.1 °F 33% 30.06 in 10.0 mi WSW 8.1 mph - N/A   Clear
1:35 PM 81.5 °F - 49.5 °F 33% 30.06 in 10.0 mi West 5.8 mph - N/A   Clear
1:55 PM 81.5 °F - 51.1 °F 35% 30.05 in 10.0 mi WSW 4.6 mph - N/A   Clear
2:15 PM 81.3 °F - 49.8 °F 33% 30.06 in 10.0 mi WSW 3.5 mph - N/A   Clear
2:35 PM 81.1 °F - 50.4 °F 34% 30.06 in 10.0 mi SW 4.6 mph - N/A   Clear
2:55 PM 82.4 °F - 49.8 °F 32% 30.05 in 10.0 mi Calm Calm - N/A   Clear
3:15 PM 82.0 °F - 51.3 °F 34% 30.05 in 10.0 mi West 3.5 mph - N/A   Clear
3:35 PM 84.4 °F - 50.9 °F 31% 30.05 in 10.0 mi Calm Calm - N/A   Clear
3:55 PM 84.4 °F - 52.3 °F 33% 30.04 in 10.0 mi Calm Calm - N/A   Clear
4:15 PM 85.3 °F 83.5 °F 53.1 °F 33% 30.04 in 10.0 mi South 4.6 mph - N/A   Clear
4:35 PM 84.4 °F 82.8 °F 53.1 °F 34% 30.03 in 10.0 mi South 4.6 mph - N/A   Clear
4:55 PM 84.4 °F - 51.4 °F 32% 30.04 in 10.0 mi South 4.6 mph - N/A   Clear
5:15 PM 83.3 °F - 48.9 °F 30% 30.03 in 10.0 mi South 4.6 mph - N/A   Clear
5:35 PM 83.7 °F - 50.7 °F 32% 30.02 in 10.0 mi South 4.6 mph - N/A   Clear
5:55 PM 83.7 °F - 50.9 °F 32% 30.02 in 10.0 mi South 5.8 mph - N/A   Clear
6:15 PM 82.4 °F - 51.4 °F 34% 30.01 in 10.0 mi South 4.6 mph - N/A   Clear
6:35 PM 81.1 °F - 52.0 °F 36% 30.01 in 10.0 mi Calm Calm - N/A   Clear
6:55 PM 81.0 °F 80.7 °F 55.0 °F 41% 30.01 in 10.0 mi SSE 3.5 mph - N/A   Clear
7:15 PM 79.2 °F - 54.1 °F 42% 30.01 in 10.0 mi SSE 3.5 mph - N/A   Clear
7:35 PM 78.8 °F - 54.5 °F 43% 30.01 in 7.0 mi Calm Calm - N/A   Clear
7:55 PM 78.8 °F - 55.8 °F 45% 30.01 in 7.0 mi Calm Calm - N/A   Clear
8:15 PM 76.1 °F - 55.4 °F 49% 30.00 in 10.0 mi SSE 4.6 mph - N/A   Clear
8:35 PM 76.1 °F - 52.9 °F 44% 30.00 in 10.0 mi South 5.8 mph - N/A   Clear
8:55 PM 76.1 °F - 50.2 °F 40% 30.00 in 10.0 mi South 5.8 mph - N/A   Clear
9:15 PM 76.1 °F - 49.6 °F 39% 30.00 in 10.0 mi South 4.6 mph - N/A   Clear
9:35 PM 76.1 °F - 50.0 °F 40% 30.01 in 10.0 mi South 5.8 mph - N/A   Clear
9:55 PM 76.1 °F - 50.5 °F 41% 30.01 in 10.0 mi South 5.8 mph - N/A   Scattered Clouds
10:15 PM 76.1 °F - 51.4 °F 42% 30.01 in 10.0 mi South 4.6 mph - N/A   Scattered Clouds
10:35 PM 76.1 °F - 52.2 °F 43% 30.01 in 10.0 mi South 5.8 mph - N/A   Clear
11:55 PM 76.1 °F - 53.1 °F 45% 30.01 in 10.0 mi South 5.8 mph - N/A   Clear